User: anonymous   Login
Location: Scultetus-Sternwarte G�rlitz
(51.1356°N, 14.9514°E)
Time: 17:23:34
(UTC+02:00)
Language:

Iridium 3 - Orbit

View from above orbital plane
View from above orbital plane
View from above satellite
View from above satellite

Ground track
Ground track

The orbit data is extracted from the following two-line orbital elements,

1 25431U 98048A   14294.49446273  .00000222  00000-0  72270-4 0  9328
2 25431 086.3928 301.0100 0002058 104.9234 007.1026 14.34219353846623
Epoch (UTC): 21 October 2014 11:52:01
Eccentricity: 0.0002058
inclination: 86.3928°
perigee height: 776 km
apogee height: 779 km
right ascension of ascending node: 301.0100°
argument of perigee: 104.9234°
revolutions per day: 14.34219353
mean anomaly at epoch: 7.1026°
orbit number at epoch: 84662

The dashed part of the orbit path shows where the satellite is in the earth's shadow,  

DLR